sat.trackr.live / text

‹ back to catalog

UNKNOWN

NORAD 81104

UNKNOWN UNKNOWN UNKNOWN

§ Identity

Operator
Country
Launch date
Launch site
Launch vehicle
Mass (kg)
RCS (m²)

External: N2YO · Heavens-Above

§ Orbital elements

Epoch: 2026-08-12T09:57:40.744224Z

Period
161.59 min
Inclination
52.0097°
Eccentricity
0.3261197
Mean motion
8.91157749 rev/d
Perigee alt
244.3 km
Apogee alt
6,654.0 km
Semi-major
9,827.3 km
B*
2.1223e-4
RAAN
116.4959°
Arg perigee
113.8533°
Mean anomaly
283.5266°
Rev number
1

§ Raw data

UNKNOWN1 81104U          26224.41505491  .00008062  00000+0  21223-3 0  99972 81104  52.0097 116.4959 3261197 113.8533 283.5266  8.91157749    11

JSON: /api/v1/satellites/81104 · /tle

For live sub-satellite position, see the globe view (requires WebGL).

§ Visibility from observer

Set your observer location to see the next 7 days of passes ≥ 10°. The values pass through the URL so the page stays shareable.

No JS? Fill the form by hand. The geolocation button needs JavaScript.